Regional Weather Roundup
Issued by NWS

Home | Current Version | Previous Version | Text Only | Print | Product List | Glossary On
Versions: 1 2 3 4 5 6 7 8 9 10 11 12 13 14 15 16 17 18 19 20 21 22 23 24 25 26 27 28 29 30 31 32 33 34 35 36 37 38 39 40 41 42 43 44 45 46 47 48 49 50
000
ASUS45 KBOI 211810
RWRID

IDAHO REGIONAL WEATHER ROUNDUP
NATIONAL WEATHER SERVICE BOISE ID
1200 PM MDT SAT OCT 21 2017

NOTE: "FAIR" INDICATES FEW OR NO CLOUDS BELOW 12000 FEET
WITH NO SIGNIFICANT WEATHER AND/OR OBSTRUCTIONS TO VISIBILITY

IDZ012-014-211900-
SOUTHWEST IDAHO


CITY           SKY/WX    TMP DP  RH WIND       PRES   REMARKS
BOISE          CLOUDY    46  33  60 SE14      30.17R
CALDWELL       CLOUDY    47  33  58 S7        30.17S
MOUNTAIN HOME  PTSUNNY   47  31  54 E9        30.17F
$$

IDZ016-017-211900-
SOUTHCENTRAL IDAHO


CITY           SKY/WX    TMP DP  RH WIND       PRES   REMARKS
BURLEY         MOSUNNY   43  26  51 W6        30.19R
JEROME         PTSUNNY   43  30  60 SW8       30.20S
TWIN FALLS     MOSUNNY   46  25  43 S8        30.19S
$$

IDZ019>023-211900-
SOUTHEAST IDAHO


CITY           SKY/WX    TMP DP  RH WIND       PRES   REMARKS
IDAHO FALLS    PTSUNNY   40  28  62 SW21G33   30.16R WCI  30
POCATELLO      MOSUNNY   43  25  49 SW20G26   30.20R
REXBURG        CLOUDY    35  29  78 SW12      30.15R WCI  27
$$

IDZ006-010-011-018-031-032-211900-
CENTRAL IDAHO MOUNTAINS


CITY           SKY/WX    TMP DP  RH WIND       PRES   REMARKS
MCCALL         LGT SNOW  33  27  78 SE12      30.09R WCI  24
HAILEY         MOSUNNY   36  27  69 SE6       30.16S WCI  31
STANLEY          N/A     33  23  66 SE7       30.10S WCI  27
SALMON         CLOUDY    44  24  45 S12       30.07F
CHALLIS        PTSUNNY   41  18  39 S10       30.08S
$$

IDZ002-004-006-007-026-211900-
NORTHERN IDAHO


CITY           SKY/WX    TMP DP  RH WIND       PRES   REMARKS
LEWISTON       CLOUDY    50  36  58 NE7       30.01R
LOWELL           N/A     45  39  79 CALM      30.07F
COEUR D`ALENE  CLOUDY    44  33  65 S6        29.99S
MULLAN PASS    CLOUDY    26  24  92 VRB5      29.94R WCI  20
$$



USA.gov is the U.S. government's official web portal to all federal, state and local government web resources and services.